This demonstration page uses our WeatherBlox Daily Observations layout. Learn more.

Left ArrowRight Arrow

38.88101, -77.10428

Hourly Observations for December 7, 2015

Temp ( °F °C ) Dew Point ( °F °C ) Humidity (%) Winds ( mph kmh ) Pressure ( in mb ) Visibility ( mi km ) Precip ( " mm )
12:52 am 00:52 Cloudy 39 3.9 36 2.2 89 89 SW 5 7 30.28 1025 9 14 N/A
1:52 am 01:52 Cloudy 40 4.4 36 2.2 86 86 SW 3 6 30.26 1025 10 16 N/A
2:52 am 02:52 Mostly Cloudy 42 5.6 36 2.2 79 79 N N/A 30.25 1025 10 16 N/A
3:52 am 03:52 Mostly Cloudy 40 4.4 36 2.2 86 86 S 3 6 30.24 1024 10 16 N/A
4:52 am 04:52 Mostly Cloudy 39 3.9 35 1.7 86 86 SW 3 6 30.22 1023 10 16 N/A
5:52 am 05:52 Mostly Cloudy 38 3.3 36 2.2 93 93 N N/A 30.22 1024 9 14 N/A
6:52 am 06:52 Mostly Clear 37 2.8 34 1.1 89 89 WSW 5 7 30.22 1023 8 13 N/A
7:52 am 07:52 Mostly Sunny 40 4.4 36 2.2 86 86 NNE 3 6 30.22 1024 7 11 N/A
8:52 am 08:52 Mostly Sunny 42 5.6 37 2.8 82 82 SSE 3 6 30.23 1024 8 13 N/A
9:52 am 09:52 Mostly Sunny 45 7.2 38 3.3 77 77 undefined N/A 30.22 1024 8 13 N/A
10:52 am 10:52 Mostly Sunny 52 11.1 36 2.2 55 55 NNW 8 13 30.20 1023 10 16 N/A
11:52 am 11:52 Mostly Sunny 57 13.9 33 0.6 41 41 N 9 15 30.17 1022 10 16 N/A
12:52 pm 12:52 Mostly Sunny 59 15 30 -1.1 33 33 WNW 8 13 30.14 1021 10 16 N/A
1:52 pm 13:52 Partly Cloudy 59 15 30 -1.1 33 33 NW 6 9 30.12 1020 10 16 N/A
2:52 pm 14:52 Mostly Cloudy 57 13.9 31 -0.6 37 37 NW 8 13 30.09 1019 10 16 N/A
3:52 pm 15:52 Mostly Cloudy 56 13.3 32 undefined 40 40 N 7 11 30.11 1020 10 16 N/A
4:52 pm 16:52 Mostly Cloudy 55 12.8 33 0.6 44 44 N 8 13 30.11 1020 10 16 N/A
5:52 pm 17:52 Mostly Cloudy 53 11.7 32 undefined 45 45 NNW 8 13 30.11 1020 10 16 N/A
6:52 pm 18:52 Mostly Cloudy 49 9.4 33 0.6 55 55 N 8 13 30.11 1020 10 16 N/A
7:52 pm 19:52 Cloudy 50 10 32 undefined 50 50 N 7 11 30.13 1020 10 16 N/A
8:52 pm 20:52 Cloudy 51 10.6 32 undefined 48 48 N 6 9 30.14 1021 10 16 N/A
9:52 pm 21:52 Cloudy 51 10.6 32 undefined 48 48 NNW 7 11 30.14 1021 10 16 N/A
10:52 pm 22:52 Mostly Cloudy 51 10.6 31 -0.6 46 46 NW 5 7 30.14 1021 10 16 N/A
11:52 pm 23:52 Mostly Clear 44 6.7 35 1.7 71 71 N 3 6 30.11 1020 10 16 N/A

Powered by AerisWeather